Location: アルンシュタイン
(50.0000°N, 10.0000°E)
Time: 04:24:44
(UTC+02:00)

ISS - Visible Passes

Search period start: 17 October 2021 00:00
Search period end: 27 October 2021 00:00
Orbit: 417 x 423 km, 51.6° (Epoch: 16 October)

Date Brightness Start Highest point End Pass type
(mag) Time Alt. Az. Time Alt. Az. Time Alt. Az.
22 Oct -1.3 07:02:12 10° SSW 07:04:53 22° SE 07:07:33 10° E visible
23 Oct -0.9 06:15:48 10° S 06:17:50 15° SE 06:19:52 10° E visible
24 Oct -2.7 07:03:44 10° SW 07:06:58 45° SSE 07:10:13 10° ENE visible
25 Oct -2.2 06:17:46 17° SSW 06:19:49 32° SSE 06:22:52 10° E visible
26 Oct -1.7 05:32:49 22° SE 05:32:49 22° SE 05:35:24 10° E visible
26 Oct -3.7 07:05:48 10° WSW 07:09:12 83° SSE 07:12:34 10° ENE visible
